This is the latest recevied weather packets stored in our database for station/object N3EDS. If no packets are shown the sender has not sent any weather packets the latest 10 day(s).
| Time | Temp. | Humidity | Pressure | Rain* | Wind** | Luminosity | Snow |
|---|---|---|---|---|---|---|---|
| 1777837400 | 12.22° C | 43% | 1015.6 hPa | 0 mm | - | 170 W/m² | - |
| 1777837097 | 11.67° C | 42% | 1015.5 hPa | 0 mm | - | 807 W/m² | - |
| 1777836793 | 11.67° C | 43% | 1015.8 hPa | 0 mm | - | 192 W/m² | - |
| 1777836489 | 11.67° C | 45% | 1015.8 hPa | 0 mm | - | 797 W/m² | - |
| 1777836184 | 11.67° C | 44% | 1015.8 hPa | 0 mm | - | 900 W/m² | - |
| 1777835881 | 12.22° C | 43% | 1015.8 hPa | 0 mm | - | 816 W/m² | - |
| 1777835578 | 12.22° C | 43% | 1016 hPa | 0 mm | - | 866 W/m² | - |
| 1777835275 | 12.22° C | 47% | 1015.8 hPa | 0 mm | - | 861 W/m² | - |
| 1777834971 | 11.67° C | 42% | 1016 hPa | 0 mm | - | 220 W/m² | - |
| 1777834669 | 10.56° C | 49% | 1015.9 hPa | 0 mm | - | 881 W/m² | - |
| 1777834364 | 11.11° C | 44% | 1016.1 hPa | 0 mm | - | 179 W/m² | - |
| 1777834059 | 11.67° C | 44% | 1015.9 hPa | 0 mm | - | 885 W/m² | - |
| 1777833756 | 12.22° C | 46% | 1016.3 hPa | 0 mm | - | 256 W/m² | - |
| 1777833452 | 12.22° C | 44% | 1016.2 hPa | 0 mm | - | 846 W/m² | - |
| 1777833149 | 12.22° C | 45% | 1016.1 hPa | 0 mm | - | 906 W/m² | - |
| 1777832847 | 12.22° C | 44% | 1016.2 hPa | 0 mm | - | 893 W/m² | - |
| 1777832546 | 11.67° C | 45% | 1016.2 hPa | 0 mm | - | 891 W/m² | - |
| 1777832242 | 10.56° C | 44% | 1016.3 hPa | 0 mm | - | 872 W/m² | - |
| 1777831939 | 10.56° C | 46% | 1016.3 hPa | 0 mm | - | 195 W/m² | - |
| 1777831635 | 11.11° C | 46% | 1016.2 hPa | 0 mm | - | 959 W/m² | - |
| 1777831334 | 11.67° C | 46% | 1016.2 hPa | 0 mm | - | 930 W/m² | - |
| 1777831030 | 11.67° C | 44% | 1016.2 hPa | 0 mm | - | 916 W/m² | - |
| 1777830728 | 11.11° C | 45% | 1016.5 hPa | 0 mm | - | 885 W/m² | - |
| 1777830424 | 11.67° C | 48% | 1016.3 hPa | 0 mm | - | 443 W/m² | - |
| 1777830122 | 10.56° C | 46% | 1016.8 hPa | 0 mm | - | 914 W/m² | - |
* Rain latest hour (hover to see other rain measurements)
** Current wind speed in m/s (hover to see current wind gust speed)